Weather History for Clinton, OK

Change the Weather History Date:

Monday, September 9, 2013

  Actual Average (KCSM) Record (KCSM)
Temperature  
Mean Temperature 81 °F -  
Max Temperature 93 °F 87 °F 96 °F (2014)
Min Temperature 69 °F 63 °F 54 °F (2004)
Cooling Degree Days 16    
Growing Degree Days 31 (Base 50)    
Moisture  
Dew Point 52 °F    
Average Humidity 39    
Maximum Humidity 64    
Minimum Humidity 18    
Precipitation  
Precipitation 0.00 in - - ()
Sea Level Pressure  
Sea Level Pressure 29.96 in    
Wind  
Wind Speed 10 mph (SSE)    
Max Wind Speed 21 mph    
Max Gust Speed 28 mph    
Visibility 10 miles    
Events      
Averages and records for this station are not official NWS values.
T = Trace of Precipitation, MM = Missing Value Source: NWS Daily Summary

Daily Weather History Graph

Daily Weather History Graph

Search for Another Location

Airport:

Trip Planner

Search our weather history database for the weather conditions in past years. The results will help you decide how hot, cold, wet, or windy it might be!

Date:

Astronomy

Sep. 09, 2013 Rise Set
Actual Time 7:14 AM CDT 7:51 PM CDT
Civil Twilight 6:48 AM CDT 8:16 PM CDT
Nautical Twilight 6:18 AM CDT 8:46 PM CDT
Astronomical Twilight 5:47 AM CDT 9:17 PM CDT
Moon 11:26 AM CDT (9/9) 10:20 PM CDT (9/9)
Length of Visible Light 13h 28m
Length of Day
12h 36m
Waxing Crescent, 19% of the Moon is Illuminated
Sep 9
Waxing Crescent
Sep 12
First Quarter
Sep 19
Full
Sep 26
Last Quarter
Oct 4
New

Hourly Weather History & Observations

Time (CDT) Temp. Heat Index Dew Point Humidity Pressure Visibility Wind Dir Wind Speed Gust Speed Precip Events Conditions
12:15 AM 75.2 °F - 50.0 °F 41% 29.96 in 10.0 mi SSE 6.9 mph - N/A   Unknown
12:35 AM 75.2 °F - 51.8 °F 44% 29.96 in 10.0 mi SE 6.9 mph - N/A   Unknown
12:55 AM 75.2 °F - 51.8 °F 44% 29.96 in 10.0 mi SSE 6.9 mph - N/A   Unknown
1:15 AM 73.4 °F - 51.8 °F 47% 29.96 in 10.0 mi SSE 6.9 mph - N/A   Unknown
1:35 AM 73.4 °F - 51.8 °F 47% 29.96 in 10.0 mi SSE 6.9 mph - N/A   Unknown
1:55 AM 73.4 °F - 53.6 °F 50% 29.96 in 10.0 mi SE 5.8 mph - N/A   Unknown
2:15 AM 71.6 °F - 53.6 °F 53% 29.96 in 10.0 mi SE 4.6 mph - N/A   Unknown
2:35 AM 71.6 °F - 53.6 °F 53% 29.96 in 10.0 mi SE 6.9 mph - N/A   Unknown
2:55 AM 71.6 °F - 53.6 °F 53% 29.96 in 10.0 mi SSE 5.8 mph - N/A   Unknown
3:15 AM 71.6 °F - 53.6 °F 53% 29.96 in 10.0 mi SSE 6.9 mph - N/A   Unknown
3:35 AM 71.6 °F - 53.6 °F 53% 29.96 in 10.0 mi SSE 8.1 mph - N/A   Unknown
3:55 AM 71.6 °F - 53.6 °F 53% 29.96 in 10.0 mi SSE 6.9 mph - N/A   Unknown
4:15 AM 71.6 °F - 55.4 °F 57% 29.96 in 10.0 mi SSE 8.1 mph - N/A   Unknown
4:35 AM 71.6 °F - 55.4 °F 57% 29.96 in 10.0 mi SSE 8.1 mph - N/A   Unknown
4:55 AM 71.6 °F - 55.4 °F 57% 29.96 in 10.0 mi SSE 8.1 mph - N/A   Unknown
5:15 AM 71.6 °F - 55.4 °F 57% 29.96 in 10.0 mi SSE 8.1 mph - N/A   Unknown
5:35 AM 69.8 °F - 55.4 °F 60% 29.96 in 10.0 mi SSE 8.1 mph - N/A   Unknown
5:55 AM 69.8 °F - 55.4 °F 60% 29.97 in 10.0 mi SSE 10.4 mph - N/A   Unknown
6:15 AM 69.8 °F - 55.4 °F 60% 29.97 in 10.0 mi SE 8.1 mph - N/A   Unknown
6:35 AM 69.8 °F - 55.4 °F 60% 29.97 in 10.0 mi SSE 8.1 mph - N/A   Unknown
6:55 AM 69.8 °F - 55.4 °F 60% 29.98 in 10.0 mi SSE 8.1 mph - N/A   Unknown
7:15 AM 69.8 °F - 55.4 °F 60% 29.98 in 10.0 mi SSE 6.9 mph - N/A   Unknown
7:35 AM 69.8 °F - 57.2 °F 64% 29.99 in 10.0 mi SSE 8.1 mph - N/A   Unknown
7:55 AM 69.8 °F - 57.2 °F 64% 30.00 in 10.0 mi SSE 6.9 mph - N/A   Unknown
8:15 AM 71.6 °F - 57.2 °F 60% 30.00 in 10.0 mi SSE 6.9 mph - N/A   Unknown
8:35 AM 71.6 °F - 59.0 °F 64% 30.00 in 10.0 mi SSE 6.9 mph - N/A   Unknown
8:55 AM 73.4 °F - 59.0 °F 61% 30.00 in 10.0 mi SSE 8.1 mph - N/A   Unknown
9:15 AM 75.2 °F - 59.0 °F 57% 30.00 in 10.0 mi South 10.4 mph - N/A   Unknown
9:35 AM 77.0 °F - 59.0 °F 54% 30.01 in 10.0 mi South 9.2 mph - N/A   Unknown
9:55 AM 78.8 °F - 59.0 °F 51% 30.01 in 10.0 mi South 8.1 mph - N/A   Unknown
10:15 AM 80.6 °F 81.1 °F 59.0 °F 48% 30.01 in 10.0 mi SSW 10.4 mph - N/A   Unknown
10:35 AM 82.4 °F 82.0 °F 57.2 °F 42% 30.01 in 10.0 mi SSW 10.4 mph - N/A   Unknown
10:55 AM 86.0 °F 84.9 °F 57.2 °F 37% 30.01 in 10.0 mi SW 13.8 mph 20.7 mph N/A   Unknown
11:15 AM 86.0 °F 84.5 °F 55.4 °F 35% 30.01 in 10.0 mi South 13.8 mph 23.0 mph N/A   Unknown
11:35 AM 87.8 °F 85.7 °F 53.6 °F 31% 30.00 in 10.0 mi SSW 18.4 mph 23.0 mph N/A   Unknown
11:55 AM 87.8 °F - 51.8 °F 29% 30.00 in 10.0 mi SSW 20.7 mph 25.3 mph N/A   Unknown
12:15 PM 87.8 °F - 51.8 °F 29% 30.00 in 10.0 mi SSW 17.3 mph 24.2 mph N/A   Unknown
12:35 PM 89.6 °F - 51.8 °F 27% 30.00 in 10.0 mi South 18.4 mph 21.9 mph N/A   Unknown
12:55 PM 89.6 °F - 51.8 °F 27% 30.00 in 10.0 mi South 17.3 mph 23.0 mph N/A   Unknown
1:15 PM 89.6 °F - 50.0 °F 26% 29.99 in 10.0 mi South 19.6 mph 25.3 mph N/A   Unknown
1:35 PM 89.6 °F - 50.0 °F 26% 29.99 in 10.0 mi South 19.6 mph 26.5 mph N/A   Unknown
1:55 PM 91.4 °F - 48.2 °F 23% 29.98 in 10.0 mi South 16.1 mph 27.6 mph N/A   Unknown
2:15 PM 91.4 °F - 46.4 °F 21% 29.97 in 10.0 mi South 19.6 mph 27.6 mph N/A   Unknown
2:35 PM 91.4 °F - 46.4 °F 21% 29.97 in 10.0 mi SSE 17.3 mph - N/A   Unknown
2:55 PM 91.4 °F - 44.6 °F 20% 29.96 in 10.0 mi South 13.8 mph 27.6 mph N/A   Unknown
3:15 PM 91.4 °F - 42.8 °F 18% 29.95 in 10.0 mi South 15.0 mph 27.6 mph N/A   Unknown
3:35 PM 91.4 °F - 44.6 °F 20% 29.95 in 10.0 mi South 17.3 mph 27.6 mph N/A   Unknown
3:55 PM 93.2 °F - 44.6 °F 19% 29.94 in 10.0 mi South 17.3 mph 27.6 mph N/A   Unknown
4:15 PM 93.2 °F - 44.6 °F 19% 29.93 in 10.0 mi South 18.4 mph 26.5 mph N/A   Unknown
4:35 PM 91.4 °F - 44.6 °F 20% 29.93 in 10.0 mi SSE 19.6 mph 25.3 mph N/A   Unknown
4:55 PM 91.4 °F - 44.6 °F 20% 29.92 in 10.0 mi South 13.8 mph 23.0 mph N/A   Unknown
5:15 PM 91.4 °F - 44.6 °F 20% 29.92 in 10.0 mi South 15.0 mph 25.3 mph N/A   Unknown
5:35 PM 91.4 °F - 46.4 °F 21% 29.92 in 10.0 mi South 18.4 mph 23.0 mph N/A   Unknown
5:55 PM 91.4 °F - 44.6 °F 20% 29.91 in 10.0 mi South 17.3 mph 23.0 mph N/A   Unknown
6:15 PM 91.4 °F - 44.6 °F 20% 29.91 in 10.0 mi SSW 12.7 mph - N/A   Unknown
6:35 PM 91.4 °F - 46.4 °F 21% 29.91 in 10.0 mi South 16.1 mph - N/A   Unknown
6:55 PM 89.6 °F - 46.4 °F 22% 29.91 in 10.0 mi SSE 16.1 mph 20.7 mph N/A   Unknown
7:15 PM 89.6 °F - 46.4 °F 22% 29.91 in 10.0 mi SSE 16.1 mph 20.7 mph N/A   Unknown
7:35 PM 87.8 °F - 46.4 °F 24% 29.91 in 10.0 mi SSE 17.3 mph 25.3 mph N/A   Unknown
7:55 PM 87.8 °F - 48.2 °F 25% 29.91 in 10.0 mi SSE 13.8 mph 17.3 mph N/A   Unknown
8:15 PM 86.0 °F - 48.2 °F 27% 29.92 in 10.0 mi SSE 11.5 mph - N/A   Unknown
8:35 PM 84.2 °F - 50.0 °F 30% 29.92 in 10.0 mi SSE 11.5 mph - N/A   Unknown
8:55 PM 82.4 °F - 50.0 °F 32% 29.93 in 10.0 mi SSE 11.5 mph - N/A   Unknown
9:15 PM 82.4 °F - 50.0 °F 32% 29.94 in 10.0 mi SSE 10.4 mph - N/A   Unknown
9:35 PM 80.6 °F - 50.0 °F 34% 29.95 in 10.0 mi SSE 9.2 mph - N/A   Unknown
9:55 PM 80.6 °F - 51.8 °F 37% 29.95 in 10.0 mi SSE 10.4 mph - N/A   Unknown
10:15 PM 78.8 °F - 51.8 °F 39% 29.96 in 10.0 mi SSE 8.1 mph - N/A   Unknown
10:35 PM 78.8 °F - 50.0 °F 36% 29.97 in 10.0 mi SSE 9.2 mph - N/A   Unknown
10:55 PM 78.8 °F - 50.0 °F 36% 29.97 in 10.0 mi SSE 8.1 mph - N/A   Unknown
11:15 PM 77.0 °F - 51.8 °F 41% 29.97 in 10.0 mi SSE 8.1 mph - N/A   Unknown
11:35 PM 77.0 °F - 51.8 °F 41% 29.98 in 10.0 mi SSE 8.1 mph - N/A   Unknown
11:55 PM 77.0 °F - 51.8 °F 41% 29.98 in 10.0 mi South 6.9 mph - N/A   Unknown